TimeCDT,TemperatureF,Dew PointF,Humidity,Sea Level PressureIn,VisibilityMPH,Wind Direction,Wind SpeedMPH,Gust SpeedMPH,PrecipitationIn,Events,Conditions,WindDirDegrees,DateUTC
12:58 AM,45.0,45.0,100,30.14,10.0,Calm,Calm,-,N/A,,Clear,0,2012-10-09 05:58:00
1:58 AM,44.1,43.0,96,30.14,10.0,Calm,Calm,-,N/A,,Partly Cloudy,0,2012-10-09 06:58:00
2:58 AM,43.0,43.0,100,30.13,10.0,Calm,Calm,-,N/A,,Partly Cloudy,0,2012-10-09 07:58:00
3:58 AM,43.0,42.1,97,30.13,10.0,Calm,Calm,-,N/A,,Clear,0,2012-10-09 08:58:00
4:16 AM,42.8,42.8,100,30.13,10.0,Calm,Calm,-,N/A,,Clear,0,2012-10-09 09:16:00
4:58 AM,42.1,41.0,96,30.13,10.0,Calm,Calm,-,N/A,,Clear,0,2012-10-09 09:58:00
5:58 AM,42.1,41.0,96,30.14,10.0,Calm,Calm,-,N/A,,Clear,0,2012-10-09 10:58:00
6:12 AM,42.8,41.0,93,30.15,10.0,Calm,Calm,-,N/A,,Clear,0,2012-10-09 11:12:00
6:21 AM,42.8,41.0,93,30.15,10.0,Calm,Calm,-,N/A,,Clear,0,2012-10-09 11:21:00
6:58 AM,41.0,39.9,96,30.15,10.0,Calm,Calm,-,N/A,,Clear,0,2012-10-09 11:58:00
7:58 AM,46.0,44.1,93,30.16,10.0,Calm,Calm,-,N/A,,Clear,0,2012-10-09 12:58:00
8:58 AM,52.0,48.0,86,30.17,10.0,Calm,Calm,-,N/A,,Clear,0,2012-10-09 13:58:00
9:58 AM,57.9,48.0,70,30.17,10.0,Calm,Calm,-,N/A,,Clear,0,2012-10-09 14:58:00
10:58 AM,61.0,46.9,60,30.16,10.0,Calm,Calm,-,N/A,,Clear,0,2012-10-09 15:58:00
11:58 AM,66.0,48.0,52,30.14,10.0,Variable,3.5,-,N/A,,Clear,0,2012-10-09 16:58:00
12:58 PM,66.9,48.9,52,30.11,10.0,Variable,4.6,-,N/A,,Clear,0,2012-10-09 17:58:00
1:58 PM,70.0,48.9,47,30.08,10.0,West,8.1,-,N/A,,Clear,260,2012-10-09 18:58:00
2:58 PM,70.0,48.9,47,30.06,10.0,NW,4.6,-,N/A,,Clear,310,2012-10-09 19:58:00
3:58 PM,72.0,48.9,44,30.04,10.0,NW,5.8,-,N/A,,Clear,310,2012-10-09 20:58:00
4:58 PM,71.1,48.9,45,30.04,10.0,Calm,Calm,-,N/A,,Clear,0,2012-10-09 21:58:00
5:58 PM,68.0,53.1,59,30.04,10.0,Calm,Calm,-,N/A,,Clear,0,2012-10-09 22:58:00
6:58 PM,59.0,55.9,90,30.04,10.0,Calm,Calm,-,N/A,,Clear,0,2012-10-09 23:58:00
7:58 PM,55.9,54.0,93,30.04,10.0,Calm,Calm,-,N/A,,Clear,0,2012-10-10 00:58:00
8:58 PM,54.0,52.0,93,30.05,10.0,Calm,Calm,-,N/A,,Clear,0,2012-10-10 01:58:00
9:58 PM,52.0,51.1,97,30.07,10.0,Calm,Calm,-,N/A,,Clear,0,2012-10-10 02:58:00
10:58 PM,51.1,50.0,96,30.09,10.0,Calm,Calm,-,N/A,,Clear,0,2012-10-10 03:58:00
11:58 PM,50.0,48.0,93,30.10,10.0,Calm,Calm,-,N/A,,Clear,0,2012-10-10 04:58:00